Regional Weather Roundup
Issued by NWS

Home | Current Version | Previous Version | Graphics & Text | Print | Product List | Glossary On
Versions: 1 2 3 4 5 6 7 8 9 10 11 12 13 14 15 16 17 18 19 20 21 22 23 24 25 26 27 28 29 30 31 32 33 34 35 36 37 38 39 40 41 42 43 44 45 46 47 48 49 50
000
ASUS45 KBOU 180607
RWRCO

WEATHER ROUNDUP FOR COLORADO
NATIONAL WEATHER SERVICE DENVER/BOULDER CO
1100 PM MST WED DEC 17 2014

NOTE: "FAIR" INDICATES FEW OR NO CLOUDS BELOW 12000 FEET WITH NO
SIGNIFICANT WEATHER AND/OR OBSTRUCTIONS TO VISIBILITY.

COZ001>005-013-030-031-180700-
...NORTHWEST COLORADO...

CITY           SKY/WX    TMP DP  RH WIND       PRES   REMARKS
CRAIG          CLOUDY    26  25  96 S3        30.05R FOG
HAYDEN         CLOUDY    27  25  93 CALM      30.04R
MEEKER         CLOUDY    26  25  96 SW3       30.04R FOG
MOUNT WERNER   NOT AVBL
STEAMBOAT SPGS CLOUDY    25  24  96 CALM      30.03R
WALDEN         PTCLDY    14  12  92 S6        30.00R WCI   5
$$

COZ006>008-011-180700-
...WEST CENTRAL VALLEYS...

CITY           SKY/WX    TMP DP  RH WIND       PRES   REMARKS
GRAND JUNCTION CLOUDY    35  35 100 NW5       30.05R WCI  31
MONTROSE       LGT SNOW  32  32 100 CALM      30.06R VSB 3/4
EAGLE          FLURRIES  27  25  93 CALM      30.06R
RIFLE          CLOUDY    34  32  92 W5        30.03S WCI  30
DELTA          LGT RAIN  38  36  93 CALM      30.06R
NUCLA          FLURRIES  32  32 100 CALM      30.10R
$$

COZ017>023-064>068-180700-
...SOUTHWEST COLORADO...

CITY           SKY/WX    TMP DP  RH WIND       PRES   REMARKS
DURANGO        CLOUDY    30  28  92 SW10      30.05R WCI  21
CORTEZ         CLOUDY    33  31  92 CALM      30.09R
PAGOSA SPRINGS CLOUDY    31  31 100 S3        30.05R
TELLURIDE      LGT SNOW  26  25  99 W6        30.04R WCI  19
WOLF CREEK PAS HVY SNOW  14  14 100 MISG      30.01S VSB 1/4
$$

COZ009-010-012-014-032>034-037-058>063-180700-
...CENTRAL COLORADO...

CITY           SKY/WX    TMP DP  RH WIND       PRES   REMARKS
ASPEN          LGT SNOW  28  26  92 CALM      30.00R FOG
BUENA VISTA    CLOUDY    23  18  81 CALM      30.00R
COPPER MTN     FLURRIES  19  14  79 W15       29.99R WCI   5
BERTHOUD PASS  CLOUDY    10   5  79 MISG      29.98R
COTTONWOOD PAS CLOUDY    27  23  86 S3        29.99R
GUNNISON       CLOUDY    25  19  80 CALM      30.05R
KREMMLING      FLURRIES  18  14  86 CALM      30.04S
LEADVILLE      CLOUDY    13  10  88 NE5       29.98R WCI   5
MONARCH PASS   CLOUDY    16  14  93 MISG      30.08S
SALIDA         MOCLDY    29  23  78 S3        30.07R
SUNLIGHT       FOG      N/A N/A N/A CALM      30.02S VSB 1
WILKERSON PASS CLOUDY    19  16  86 NW5       30.00S WCI  13
$$

COZ069>075-180700-
...SAN LUIS VALLEY/SANGRE DE CRISTO MOUNTAINS...

CITY           SKY/WX    TMP DP  RH WIND       PRES   REMARKS
ALAMOSA        CLOUDY    24  22  91 CALM      30.03R
LA VETA PASS   CLOUDY    21  19  93 MISG      29.97S FOG
SAGUACHE       MIX PCPN  27  27 100 S3        30.04R
$$

COZ035-036-038>040-180700-
...NORTHERN COLORADO FRONT RANGE...

CITY           SKY/WX    TMP DP  RH WIND       PRES   REMARKS
DENVER INTL AP CLOUDY    31  27  85 S9        29.98R WCI  23
DMNS CITY PARK   N/A     30  26  86 S1        29.98S
AURORA         CLOUDY    29  27  92 S5        29.98S WCI  24
FRONT RANGE AP CLOUDY    32  30  93 S6        29.98S WCI  26
ERIE MUNI ARPT   N/A     24  22  95 CALM      29.98S
BOULDER MUN AP PTCLDY    27  25  93 W3        29.99R
CENTENNIAL     PTCLDY    31  24  75 S5        29.97S WCI  26
BROOMFIELD     PTCLDY    32  27  80 W5        29.98S WCI  27
FORT COLLINS   PTCLDY    25  19  80 CALM      30.01R
LONGMONT       PTCLDY    25  23  91 NW5       30.02R WCI  19
$$

COZ041-046-047-076>085-087-088-180700-
...PIKES PEAK/PALMER DIVIDE AND SOUTHERN FOOTHILLS...

CITY           SKY/WX    TMP DP  RH WIND       PRES   REMARKS
COLO. SPRINGS  LGT SNOW  28  25  88 CALM      30.00R FOG
A. F. ACADEMY  LGT SNOW  29  29  99 SE2       29.98S FOG
ELLICOTT       NOT AVBL
FALCON         CLOUDY    30  29  95 CALM      29.99S
FORT CARSON    LGT SNOW  26  24  94 N2        29.99S FOG
LIMON          CLOUDY    18  16  92 CALM      29.99S
MONUMENT HILL  LGT SNOW  28  28 100 CALM      29.97S
TRINIDAD       PTCLDY    26  20  77 W6        29.99R WCI  19
$$

COZ042>045-048>051-090-091-180700-
...NORTHEAST COLORADO...

CITY           SKY/WX    TMP DP  RH WIND       PRES   REMARKS
GREELEY ARPT   MOCLDY    25  16  68 CALM      30.00R
AKRON          FOG       20  20 100 S8        29.99S VSB 1/4 WCI  10
BURLINGTON     LGT SNOW  25  22  88 SE3       30.03S FOG
WRAY           CLOUDY   N/A N/A N/A S6        30.06R FOG
STERLING       FOG       25  23  93 W3        30.02S VSB 3/4
HOLYOKE        NOT AVBL
FORT MORGAN    MOCLDY    19  17  93 W3        30.01S
$$

COZ086-089-092>099-180700-
...SOUTHEAST COLORADO...

CITY           SKY/WX    TMP DP  RH WIND       PRES   REMARKS
PUEBLO         NOT AVBL
LA JUNTA       LGT SNOW  28  25  88 CALM      30.04R FOG
LAMAR          CLOUDY    28  28 100 N7        30.04R FOG     WCI  21
SPRINGFIELD      N/A     26  25  96 NW10      30.01R WCI  16
$$



USA.gov is the U.S. government's official web portal to all federal, state and local government web resources and services.